| time (UTC) | temp F | wind direction | speed MPH | gust MPH | rain 1hr in | rain 24hr in | rain mn in | humidity % | barometer mb |
| 20260507165511 | 53 | 331 | 4.0 | 12.0 | 0.00 | 0.05 | 0.00 | 58 | 1010.4 |
| 20260507165011 | 52 | 300 | 4.0 | 12.0 | 0.00 | 0.05 | 0.00 | 54 | 1010.5 |
| 20260507164530 | 52 | 360 | 4.0 | 12.0 | 0.00 | 0.05 | 0.00 | 52 | 1010.4 |
| 20260507164013 | 53 | 313 | 5.0 | 12.0 | 0.00 | 0.05 | 0.00 | 56 | 1010.5 |
| 20260507163512 | 52 | 286 | 4.0 | 11.0 | 0.00 | 0.05 | 0.00 | 55 | 1010.6 |
| 20260507163027 | 52 | 221 | 4.0 | 11.0 | 0.00 | 0.05 | 0.00 | 53 | 1010.6 |
| 20260507162511 | 52 | 221 | 5.0 | 15.0 | 0.00 | 0.05 | 0.00 | 52 | 1010.7 |
| 20260507162012 | 52 | 298 | 5.0 | 15.0 | 0.00 | 0.05 | 0.00 | 59 | 1010.8 |
| 20260507161530 | 52 | 326 | 9.0 | 15.0 | 0.00 | 0.05 | 0.00 | 53 | 1010.9 |
| 20260507161017 | 52 | 297 | 5.0 | 11.0 | 0.00 | 0.05 | 0.00 | 51 | 1011.0 |
| 20260507160513 | 52 | 0 | 2.0 | 16.0 | 0.00 | 0.05 | 0.00 | 57 | 1011.0 |
| 20260507160029 | 52 | 244 | 6.0 | 16.0 | 0.00 | 0.05 | 0.00 | 56 | 1011.0 |
| 20260507155511 | 51 | 334 | 4.0 | 14.0 | 0.00 | 0.14 | 0.00 | 57 | 1011.2 |
| 20260507155010 | 50 | 280 | 6.0 | 14.0 | 0.00 | 0.14 | 0.00 | 54 | 1011.1 |
| 20260507154528 | 51 | 318 | 3.0 | 11.0 | 0.00 | 0.14 | 0.00 | 59 | 1011.1 |
| 20260507154014 | 52 | 249 | 3.0 | 11.0 | 0.00 | 0.14 | 0.00 | 55 | 1011.1 |
| 20260507153513 | 51 | 319 | 6.0 | 11.0 | 0.00 | 0.14 | 0.00 | 59 | 1011.4 |
| 20260507153027 | 51 | 300 | 5.0 | 14.0 | 0.00 | 0.14 | 0.00 | 57 | 1011.4 |
| 20260507152512 | 51 | 321 | 7.0 | 13.0 | 0.00 | 0.14 | 0.00 | 55 | 1011.3 |
| 20260507152012 | 51 | 309 | 6.0 | 12.0 | 0.00 | 0.14 | 0.00 | 58 | 1011.4 |
| 20260507151528 | 51 | 24 | 3.0 | 16.0 | 0.00 | 0.14 | 0.00 | 57 | 1011.5 |
| 20260507151015 | 51 | 273 | 8.0 | 16.0 | 0.00 | 0.14 | 0.00 | 60 | 1011.7 |
| 20260507150516 | 51 | 285 | 6.0 | 11.0 | 0.00 | 0.14 | 0.00 | 54 | 1011.7 |
| 20260507150028 | 51 | 293 | 5.0 | 14.0 | 0.00 | 0.14 | 0.00 | 62 | 1011.8 |
| 20260507145512 | 50 | 252 | 8.0 | 14.0 | 0.00 | 0.18 | 0.00 | 56 | 1011.8 |
| 20260507145016 | 49 | 17 | 2.0 | 12.0 | 0.00 | 0.18 | 0.00 | 61 | 1011.8 |
| 20260507144528 | 50 | 309 | 4.0 | 9.0 | 0.00 | 0.18 | 0.00 | 63 | 1011.8 |
| 20260507144013 | 50 | 292 | 3.0 | 8.0 | 0.00 | 0.18 | 0.00 | 65 | 1011.8 |
| 20260507143510 | 49 | 289 | 3.0 | 9.0 | 0.00 | 0.18 | 0.00 | 61 | 1011.8 |
| 20260507143030 | 50 | 332 | 4.0 | 11.0 | 0.00 | 0.18 | 0.00 | 66 | 1011.8 |
| 20260507142516 | 49 | 12 | 4.0 | 11.0 | 0.00 | 0.18 | 0.00 | 65 | 1011.9 |
| 20260507142014 | 48 | 338 | 2.0 | 11.0 | 0.00 | 0.18 | 0.00 | 60 | 1011.8 |
| 20260507141528 | 48 | 257 | 3.0 | 10.0 | 0.00 | 0.18 | 0.00 | 61 | 1011.8 |
| 20260507141014 | 48 | 263 | 5.0 | 10.0 | 0.00 | 0.18 | 0.00 | 62 | 1011.9 |
| 20260507140512 | 48 | 279 | 5.0 | 11.0 | 0.00 | 0.18 | 0.00 | 64 | 1011.9 |
| 20260507140035 | 48 | 338 | 6.0 | 14.0 | 0.00 | 0.18 | 0.00 | 61 | 1012.0 |
| 20260507135514 | 48 | 287 | 5.0 | 14.0 | 0.00 | 0.31 | 0.00 | 60 | 1012.1 |
| 20260507135013 | 48 | 267 | 5.0 | 11.0 | 0.00 | 0.31 | 0.00 | 69 | 1012.0 |
| 20260507134530 | 47 | 314 | 2.0 | 5.0 | 0.00 | 0.31 | 0.00 | 67 | 1011.9 |
| 20260507134014 | 47 | 304 | 1.0 | 8.0 | 0.00 | 0.31 | 0.00 | 67 | 1012.0 |
| 20260507133513 | 47 | 333 | 3.0 | 9.0 | 0.00 | 0.31 | 0.00 | 66 | 1012.0 |
| 20260507133028 | 47 | 24 | 3.0 | 11.0 | 0.00 | 0.31 | 0.00 | 67 | 1012.1 |
| 20260507132510 | 46 | 355 | 4.0 | 11.0 | 0.00 | 0.31 | 0.00 | 68 | 1012.1 |
| 20260507132011 | 46 | 336 | 2.0 | 9.0 | 0.00 | 0.31 | 0.00 | 67 | 1012.2 |
| 20260507131535 | 47 | 9 | 4.0 | 9.0 | 0.00 | 0.31 | 0.00 | 72 | 1012.2 |
| 20260507131011 | 47 | 340 | 4.0 | 8.0 | 0.00 | 0.31 | 0.00 | 70 | 1012.0 |
| 20260507130512 | 46 | 360 | 3.0 | 9.0 | 0.00 | 0.31 | 0.00 | 71 | 1012.2 |
| 20260507130031 | 46 | 325 | 4.0 | 10.0 | 0.00 | 0.31 | 0.00 | 73 | 1012.1 |
| 20260507125513 | 45 | 20 | 3.0 | 10.0 | 0.00 | 0.37 | 0.00 | 73 | 1012.1 |
| 20260507125014 | 45 | 330 | 3.0 | 10.0 | 0.00 | 0.37 | 0.00 | 72 | 1012.1 |
| 20260507124529 | 44 | 30 | 3.0 | 10.0 | 0.00 | 0.37 | 0.00 | 73 | 1012.2 |
| 20260507124011 | 44 | 318 | 5.0 | 10.0 | 0.00 | 0.37 | 0.00 | 73 | 1012.0 |
| 20260507123511 | 44 | 336 | 3.0 | 12.0 | 0.00 | 0.37 | 0.00 | 75 | 1012.0 |
| 20260507123028 | 44 | 311 | 4.0 | 9.0 | 0.00 | 0.37 | 0.00 | 74 | 1011.9 |
| 20260507122516 | 44 | 329 | 4.0 | 8.0 | 0.00 | 0.37 | 0.00 | 74 | 1011.8 |
| 20260507122018 | 44 | 34 | 2.0 | 8.0 | 0.00 | 0.37 | 0.00 | 78 | 1011.8 |
| 20260507121530 | 44 | 346 | 2.0 | 8.0 | 0.00 | 0.37 | 0.00 | 78 | 1011.8 |
| 20260507121011 | 43 | 5 | 3.0 | 6.0 | 0.00 | 0.37 | 0.00 | 78 | 1011.9 |
| 20260507120510 | 43 | 12 | 3.0 | 6.0 | 0.00 | 0.37 | 0.00 | 79 | 1011.9 |
| 20260507120028 | 43 | 323 | 2.0 | 6.0 | 0.00 | 0.37 | 0.00 | 81 | 1012.0 |
| 20260507115512 | 43 | 0 | 2.0 | 4.0 | 0.00 | 0.41 | 0.00 | 82 | 1012.0 |
| 20260507115012 | 42 | 0 | 1.0 | 4.0 | 0.00 | 0.41 | 0.00 | 83 | 1012.0 |
| 20260507114529 | 42 | 22 | 0.0 | 6.0 | 0.00 | 0.41 | 0.00 | 84 | 1012.0 |
| 20260507114011 | 42 | 0 | 1.0 | 7.0 | 0.00 | 0.41 | 0.00 | 84 | 1012.0 |
| 20260507113509 | 41 | 5 | 1.0 | 7.0 | 0.00 | 0.41 | 0.00 | 86 | 1011.9 |
| 20260507113028 | 40 | 0 | 0.0 | 5.0 | 0.00 | 0.41 | 0.00 | 88 | 1011.9 |
| 20260507112510 | 40 | 32 | 1.0 | 5.0 | 0.00 | 0.41 | 0.00 | 89 | 1011.8 |
| 20260507112013 | 39 | 12 | 1.0 | 4.0 | 0.00 | 0.41 | 0.00 | 89 | 1011.6 |
| 20260507111528 | 39 | 9 | 0.0 | 4.0 | 0.00 | 0.41 | 0.00 | 90 | 1011.6 |
| 20260507111012 | 38 | 0 | 0.0 | 0.0 | 0.00 | 0.41 | 0.00 | 90 | 1011.6 |
| 20260507110510 | 38 | 0 | 0.0 | 2.0 | 0.00 | 0.41 | 0.00 | 91 | 1011.6 |
| 20260507110031 | 38 | 0 | 0.0 | 3.0 | 0.00 | 0.41 | 0.00 | 91 | 1011.6 |
| 20260507105512 | 37 | 89 | 0.0 | 3.0 | 0.00 | 0.41 | 0.00 | 92 | 1011.6 |
| 20260507105012 | 37 | 89 | 0.0 | 2.0 | 0.00 | 0.41 | 0.00 | 92 | 1011.6 |
| 20260507104531 | 36 | 0 | 0.0 | 2.0 | 0.00 | 0.41 | 0.00 | 92 | 1011.5 |
| 20260507104014 | 36 | 0 | 0.0 | 2.0 | 0.00 | 0.41 | 0.00 | 92 | 1011.5 |
| 20260507103511 | 36 | 0 | 0.0 | 1.0 | 0.00 | 0.41 | 0.00 | 91 | 1011.3 |
| 20260507102510 | 36 | 0 | 0.0 | 0.0 | 0.00 | 0.41 | 0.00 | 91 | 1011.3 |
| 20260507102013 | 36 | 0 | 0.0 | 0.0 | 0.00 | 0.41 | 0.00 | 91 | 1011.3 |
| 20260507101013 | 36 | 0 | 0.0 | 0.0 | 0.00 | 0.41 | 0.00 | 91 | 1011.2 |
| 20260507100512 | 36 | 0 | 0.0 | 1.0 | 0.00 | 0.41 | 0.00 | 91 | 1011.2 |
| 20260507100031 | 36 | 0 | 0.0 | 1.0 | 0.00 | 0.41 | 0.00 | 91 | 1011.1 |
| 20260507095513 | 37 | 360 | 0.0 | 1.0 | 0.00 | 0.41 | 0.00 | 90 | 1011.1 |
| 20260507095014 | 37 | 0 | 0.0 | 1.0 | 0.00 | 0.41 | 0.00 | 90 | 1011.1 |
| 20260507094533 | 37 | 0 | 0.0 | 1.0 | 0.00 | 0.41 | 0.00 | 90 | 1011.1 |
| 20260507094011 | 37 | 0 | 0.0 | 2.0 | 0.00 | 0.41 | 0.00 | 90 | 1011.1 |
| 20260507093513 | 38 | 0 | 0.0 | 3.0 | 0.00 | 0.41 | 0.00 | 90 | 1011.0 |
| 20260507093031 | 38 | 0 | 0.0 | 3.0 | 0.00 | 0.41 | 0.00 | 90 | 1011.0 |
| 20260507092511 | 38 | 343 | 0.0 | 4.0 | 0.00 | 0.41 | 0.00 | 90 | 1010.9 |
| 20260507092015 | 39 | 0 | 0.0 | 4.0 | 0.00 | 0.41 | 0.00 | 90 | 1010.9 |
| 20260507091011 | 40 | 346 | 2.0 | 6.0 | 0.00 | 0.41 | 0.00 | 90 | 1011.1 |
| 20260507090513 | 40 | 332 | 2.0 | 6.0 | 0.00 | 0.41 | 0.00 | 91 | 1011.1 |
| 20260507090035 | 40 | 315 | 2.0 | 9.0 | 0.00 | 0.41 | 0.00 | 91 | 1011.1 |
| 20260507085513 | 40 | 360 | 2.0 | 9.0 | 0.00 | 0.41 | 0.00 | 91 | 1011.0 |
| 20260507085017 | 40 | 323 | 4.0 | 9.0 | 0.00 | 0.41 | 0.00 | 91 | 1011.0 |
| 20260507084541 | 40 | 329 | 2.0 | 5.0 | 0.00 | 0.41 | 0.00 | 91 | 1011.0 |
| 20260507084010 | 41 | 0 | 0.0 | 6.0 | 0.00 | 0.41 | 0.00 | 91 | 1011.0 |
| 20260507083514 | 41 | 312 | 1.0 | 6.0 | 0.00 | 0.41 | 0.00 | 92 | 1010.9 |
| 20260507083030 | 41 | 0 | 0.0 | 3.0 | 0.00 | 0.41 | 0.00 | 92 | 1011.1 |
| 20260507082513 | 42 | 0 | 1.0 | 6.0 | 0.00 | 0.41 | 0.00 | 92 | 1011.0 |
| 20260507082009 | 42 | 323 | 2.0 | 6.0 | 0.00 | 0.41 | 0.00 | 93 | 1011.1 |
| 20260507081529 | 42 | 317 | 1.0 | 5.0 | 0.00 | 0.41 | 0.00 | 94 | 1011.1 |
| 20260507081015 | 42 | 341 | 2.0 | 7.0 | 0.00 | 0.41 | 0.00 | 94 | 1011.1 |
| 20260507080512 | 42 | 339 | 3.0 | 7.0 | 0.00 | 0.41 | 0.00 | 94 | 1011.2 |
| 20260507080027 | 42 | 0 | 3.0 | 8.0 | 0.00 | 0.41 | 0.00 | 94 | 1011.2 |
| 20260507075511 | 42 | 317 | 3.0 | 9.0 | 0.00 | 0.41 | 0.00 | 95 | 1011.1 |
| 20260507075012 | 42 | 317 | 4.0 | 9.0 | 0.00 | 0.41 | 0.00 | 95 | 1011.1 |
| 20260507074529 | 42 | 331 | 4.0 | 8.0 | 0.00 | 0.41 | 0.00 | 95 | 1011.1 |
| 20260507074010 | 42 | 329 | 4.0 | 9.0 | 0.00 | 0.41 | 0.00 | 95 | 1011.1 |
| 20260507073513 | 42 | 330 | 4.0 | 9.0 | 0.00 | 0.41 | 0.00 | 95 | 1011.3 |
| 20260507073031 | 43 | 325 | 3.0 | 8.0 | 0.00 | 0.41 | 0.00 | 95 | 1011.3 |
| 20260507072511 | 43 | 355 | 2.0 | 5.0 | 0.00 | 0.41 | 0.00 | 96 | 1011.3 |
| 20260507072012 | 43 | 323 | 2.0 | 5.0 | 0.00 | 0.41 | 0.00 | 96 | 1011.4 |
| 20260507071529 | 43 | 337 | 1.0 | 8.0 | 0.00 | 0.41 | 0.00 | 96 | 1011.2 |
| 20260507071012 | 43 | 341 | 2.0 | 8.0 | 0.00 | 0.41 | 0.00 | 96 | 1011.3 |
| 20260507070512 | 43 | 291 | 3.0 | 8.0 | 0.00 | 0.41 | 0.00 | 96 | 1011.3 |
| 20260507070029 | 43 | 285 | 2.0 | 5.0 | 0.00 | 0.41 | 0.00 | 96 | 1011.3 |
| 20260507065511 | 43 | 0 | 1.0 | 4.0 | 0.00 | 0.41 | 0.00 | 96 | 1011.3 |
| 20260507065011 | 43 | 267 | 1.0 | 5.0 | 0.00 | 0.41 | 0.00 | 96 | 1011.3 |
| 20260507064529 | 43 | 286 | 0.0 | 4.0 | 0.00 | 0.41 | 0.00 | 96 | 1011.3 |
| 20260507064011 | 42 | 0 | 0.0 | 4.0 | 0.00 | 0.41 | 0.00 | 96 | 1011.1 |
| 20260507063512 | 43 | 281 | 0.0 | 8.0 | 0.00 | 0.41 | 0.00 | 96 | 1011.0 |
| 20260507063033 | 42 | 321 | 1.0 | 8.0 | 0.00 | 0.41 | 0.00 | 96 | 1010.9 |
| 20260507062512 | 42 | 291 | 1.0 | 8.0 | 0.00 | 0.41 | 0.00 | 96 | 1011.0 |
| 20260507062013 | 42 | 0 | 0.0 | 0.0 | 0.00 | 0.41 | 0.00 | 96 | 1010.9 |
| 20260507061529 | 42 | 0 | 0.0 | 0.0 | 0.00 | 0.41 | 0.00 | 96 | 1011.0 |
| 20260507061013 | 42 | 0 | 0.0 | 2.0 | 0.00 | 0.41 | 0.00 | 96 | 1010.8 |
| 20260507060513 | 42 | 0 | 0.0 | 2.0 | 0.00 | 0.41 | 0.00 | 96 | 1010.7 |
| 20260507060030 | 42 | 0 | 0.0 | 2.0 | 0.00 | 0.41 | 0.00 | 96 | 1010.5 |
| 20260507055513 | 42 | 0 | 0.0 | 2.0 | 0.00 | 0.41 | 0.00 | 96 | 1010.4 |
| 20260507055014 | 42 | 0 | 0.0 | 0.0 | 0.00 | 0.41 | 0.00 | 96 | 1010.6 |
| 20260507054529 | 42 | 0 | 0.0 | 0.0 | 0.00 | 0.41 | 0.00 | 96 | 1010.7 |
| 20260507054015 | 42 | 0 | 0.0 | 0.0 | 0.00 | 0.41 | 0.00 | 96 | 1010.7 |
| 20260507053511 | 42 | 0 | 0.0 | 1.0 | 0.00 | 0.41 | 0.00 | 96 | 1010.7 |
| 20260507053030 | 42 | 0 | 0.0 | 1.0 | 0.00 | 0.41 | 0.00 | 96 | 1010.8 |
| 20260507052509 | 42 | 0 | 0.0 | 0.0 | 0.00 | 0.41 | 0.00 | 96 | 1010.8 |
| 20260507052010 | 42 | 0 | 0.0 | 0.0 | 0.00 | 0.41 | 0.00 | 96 | 1010.7 |
| 20260507051526 | 42 | 0 | 0.0 | 0.0 | 0.00 | 0.41 | 0.00 | 95 | 1010.7 |
| 20260507051010 | 42 | 0 | 0.0 | 0.0 | 0.00 | 0.41 | 0.00 | 95 | 1010.7 |
| 20260507050510 | 42 | 0 | 0.0 | 0.0 | 0.00 | 0.41 | 0.00 | 95 | 1010.8 |
| 20260507050040 | 42 | 0 | 0.0 | 1.0 | 0.00 | 0.41 | 0.00 | 96 | 1010.7 |
| 20260507045513 | 42 | 0 | 0.0 | 1.0 | 0.00 | 0.41 | 0.00 | 95 | 1010.8 |
| 20260507045011 | 42 | 0 | 0.0 | 1.0 | 0.00 | 0.41 | 0.00 | 95 | 1010.9 |
| 20260507044530 | 42 | 0 | 0.0 | 1.0 | 0.00 | 0.41 | 0.00 | 95 | 1010.9 |
| 20260507044010 | 42 | 0 | 0.0 | 1.0 | 0.00 | 0.41 | 0.00 | 95 | 1011.1 |
| 20260507043510 | 42 | 0 | 0.0 | 0.0 | 0.00 | 0.41 | 0.00 | 95 | 1011.1 |
| 20260507043030 | 41 | 0 | 0.0 | 0.0 | 0.00 | 0.41 | 0.00 | 95 | 1011.0 |
| 20260507042513 | 42 | 0 | 0.0 | 0.0 | 0.00 | 0.41 | 0.00 | 95 | 1011.1 |
| 20260507042011 | 41 | 0 | 0.0 | 1.0 | 0.00 | 0.41 | 0.00 | 95 | 1011.0 |
| 20260507041528 | 41 | 0 | 0.0 | 2.0 | 0.00 | 0.41 | 0.00 | 94 | 1011.1 |
| 20260507041010 | 41 | 0 | 0.0 | 2.0 | 0.00 | 0.41 | 0.00 | 94 | 1010.9 |
| 20260507040510 | 41 | 335 | 0.0 | 1.0 | 0.00 | 0.41 | 0.00 | 94 | 1011.1 |
| 20260507040026 | 41 | 0 | 0.0 | 0.0 | 0.00 | 0.41 | 0.00 | 94 | 1010.9 |
| 20260507035510 | 41 | 0 | 0.0 | 0.0 | 0.00 | 0.41 | 0.41 | 94 | 1010.8 |
| 20260507035014 | 41 | 0 | 0.0 | 0.0 | 0.00 | 0.41 | 0.41 | 94 | 1010.9 |
| 20260507034600 | 41 | 0 | 0.0 | 0.0 | 0.00 | 0.41 | 0.41 | 94 | 1010.9 |
| 20260507034012 | 41 | 0 | 0.0 | 3.0 | 0.00 | 0.41 | 0.41 | 93 | 1011.0 |
| 20260507033513 | 41 | 0 | 0.0 | 3.0 | 0.00 | 0.41 | 0.41 | 93 | 1010.9 |
| 20260507033030 | 42 | 0 | 1.0 | 3.0 | 0.00 | 0.41 | 0.41 | 93 | 1010.6 |
| 20260507032513 | 42 | 321 | 1.0 | 2.0 | 0.00 | 0.41 | 0.41 | 93 | 1010.6 |
| 20260507032015 | 42 | 0 | 0.0 | 0.0 | 0.00 | 0.41 | 0.41 | 93 | 1010.6 |
| 20260507031529 | 42 | 0 | 0.0 | 2.0 | 0.00 | 0.41 | 0.41 | 93 | 1010.8 |
| 20260507031011 | 42 | 0 | 0.0 | 2.0 | 0.00 | 0.41 | 0.41 | 92 | 1010.9 |
| 20260507030512 | 43 | 297 | 0.0 | 2.0 | 0.00 | 0.41 | 0.41 | 92 | 1011.0 |
| 20260507030031 | 43 | 0 | 0.0 | 1.0 | 0.00 | 0.41 | 0.41 | 92 | 1010.9 |
| 20260507025510 | 44 | 0 | 0.0 | 2.0 | 0.00 | 0.41 | 0.41 | 92 | 1011.0 |
| 20260507025013 | 44 | 0 | 0.0 | 1.0 | 0.00 | 0.41 | 0.41 | 92 | 1011.1 |
| 20260507024533 | 44 | 0 | 0.0 | 1.0 | 0.00 | 0.41 | 0.41 | 92 | 1011.1 |
| 20260507024014 | 45 | 0 | 0.0 | 0.0 | 0.00 | 0.41 | 0.41 | 92 | 1010.9 |
| 20260507023515 | 45 | 0 | 0.0 | 0.0 | 0.00 | 0.41 | 0.41 | 92 | 1010.9 |
| 20260507023029 | 45 | 0 | 0.0 | 1.0 | 0.00 | 0.41 | 0.41 | 92 | 1010.9 |
| 20260507022512 | 45 | 0 | 0.0 | 3.0 | 0.00 | 0.41 | 0.41 | 92 | 1011.2 |
| 20260507022013 | 45 | 0 | 1.0 | 3.0 | 0.00 | 0.41 | 0.41 | 92 | 1011.6 |
| 20260507021533 | 45 | 0 | 0.0 | 3.0 | 0.00 | 0.41 | 0.41 | 92 | 1011.5 |
| 20260507021013 | 45 | 0 | 0.0 | 3.0 | 0.00 | 0.41 | 0.41 | 92 | 1011.0 |
| 20260507020509 | 45 | 300 | 0.0 | 2.0 | 0.00 | 0.41 | 0.41 | 92 | 1011.3 |
| 20260507020028 | 45 | 0 | 0.0 | 0.0 | 0.00 | 0.41 | 0.41 | 92 | 1011.3 |
| 20260507015512 | 46 | 0 | 0.0 | 0.0 | 0.00 | 0.41 | 0.41 | 92 | 1011.5 |
| 20260507015015 | 46 | 0 | 0.0 | 0.0 | 0.00 | 0.41 | 0.41 | 92 | 1011.6 |
| 20260507014531 | 46 | 0 | 0.0 | 0.0 | 0.00 | 0.41 | 0.41 | 92 | 1011.6 |
| 20260507014012 | 46 | 0 | 0.0 | 0.0 | 0.00 | 0.41 | 0.41 | 91 | 1011.5 |
| 20260507013510 | 46 | 0 | 0.0 | 1.0 | 0.00 | 0.41 | 0.41 | 91 | 1011.4 |
| 20260507013029 | 46 | 0 | 0.0 | 4.0 | 0.00 | 0.41 | 0.41 | 91 | 1011.4 |
| 20260507012012 | 46 | 319 | 1.0 | 4.0 | 0.00 | 0.41 | 0.41 | 91 | 1011.4 |
| 20260507011533 | 46 | 327 | 0.0 | 4.0 | 0.00 | 0.41 | 0.41 | 91 | 1011.3 |
| 20260507011011 | 46 | 0 | 0.0 | 4.0 | 0.00 | 0.41 | 0.41 | 91 | 1011.3 |
| 20260507010513 | 46 | 307 | 2.0 | 4.0 | 0.00 | 0.41 | 0.41 | 91 | 1011.5 |
| 20260507010040 | 46 | 290 | 2.0 | 5.0 | 0.00 | 0.41 | 0.41 | 91 | 1011.5 |
| 20260507005510 | 46 | 288 | 2.0 | 5.0 | 0.00 | 0.41 | 0.41 | 91 | 1011.3 |
| 20260507005010 | 46 | 281 | 2.0 | 5.0 | 0.00 | 0.41 | 0.41 | 91 | 1011.0 |
| 20260507004529 | 46 | 314 | 1.0 | 3.0 | 0.00 | 0.41 | 0.41 | 91 | 1010.9 |
| 20260507004013 | 46 | 282 | 0.0 | 3.0 | 0.00 | 0.41 | 0.41 | 91 | 1010.9 |
| 20260507003511 | 46 | 288 | 0.0 | 6.0 | 0.00 | 0.41 | 0.41 | 91 | 1010.8 |
| 20260507003030 | 46 | 321 | 2.0 | 6.0 | 0.00 | 0.41 | 0.41 | 91 | 1010.7 |
| 20260507002512 | 46 | 323 | 2.0 | 5.0 | 0.00 | 0.41 | 0.41 | 91 | 1010.6 |
| 20260507002013 | 46 | 303 | 1.0 | 5.0 | 0.00 | 0.41 | 0.41 | 91 | 1010.4 |
| 20260507001549 | 46 | 317 | 2.0 | 5.0 | 0.00 | 0.41 | 0.41 | 91 | 1010.3 |
| 20260507001011 | 46 | 5 | 1.0 | 9.0 | 0.00 | 0.41 | 0.41 | 91 | 1010.4 |
| 20260507000512 | 46 | 344 | 3.0 | 9.0 | 0.00 | 0.41 | 0.41 | 91 | 1010.5 |
| 20260507000035 | 46 | 312 | 1.0 | 6.0 | 0.00 | 0.41 | 0.41 | 91 | 1010.6 |
| 20260506235511 | 46 | 31 | 2.0 | 8.0 | 0.00 | 0.41 | 0.41 | 91 | 1010.4 |
| 20260506235010 | 46 | 288 | 3.0 | 8.0 | 0.00 | 0.41 | 0.41 | 92 | 1010.4 |
| 20260506234531 | 46 | 342 | 4.0 | 9.0 | 0.00 | 0.41 | 0.41 | 92 | 1010.1 |
| 20260506234013 | 46 | 355 | 1.0 | 9.0 | 0.00 | 0.41 | 0.41 | 92 | 1010.0 |
| 20260506233511 | 46 | 0 | 2.0 | 8.0 | 0.00 | 0.41 | 0.41 | 92 | 1010.0 |
| 20260506233030 | 46 | 305 | 4.0 | 8.0 | 0.00 | 0.41 | 0.41 | 92 | 1010.1 |
| 20260506232512 | 46 | 349 | 3.0 | 8.0 | 0.00 | 0.41 | 0.41 | 92 | 1009.9 |
| 20260506232010 | 46 | 348 | 3.0 | 10.0 | 0.00 | 0.41 | 0.41 | 92 | 1009.9 |
| 20260506231528 | 47 | 21 | 3.0 | 10.0 | 0.00 | 0.41 | 0.41 | 92 | 1010.0 |
| 20260506231013 | 47 | 320 | 2.0 | 10.0 | 0.00 | 0.41 | 0.41 | 92 | 1010.0 |
| 20260506230512 | 47 | 355 | 4.0 | 10.0 | 0.00 | 0.41 | 0.41 | 92 | 1010.0 |
| 20260506230032 | 47 | 330 | 2.0 | 11.0 | 0.00 | 0.41 | 0.41 | 93 | 1009.9 |
| 20260506225512 | 47 | 336 | 3.0 | 11.0 | 0.00 | 0.41 | 0.41 | 93 | 1009.8 |
| 20260506225012 | 47 | 338 | 5.0 | 10.0 | 0.00 | 0.41 | 0.41 | 93 | 1009.7 |
| 20260506224526 | 47 | 355 | 2.0 | 9.0 | 0.00 | 0.41 | 0.41 | 93 | 1009.5 |
| 20260506224014 | 47 | 301 | 5.0 | 10.0 | 0.01 | 0.41 | 0.41 | 93 | 1009.4 |
| 20260506223512 | 47 | 337 | 3.0 | 10.0 | 0.01 | 0.41 | 0.41 | 93 | 1009.1 |
| 20260506223029 | 47 | 321 | 3.0 | 6.0 | 0.01 | 0.41 | 0.41 | 93 | 1009.1 |
| 20260506222510 | 47 | 360 | 3.0 | 6.0 | 0.01 | 0.41 | 0.41 | 93 | 1009.1 |
| 20260506222013 | 47 | 324 | 2.0 | 6.0 | 0.02 | 0.41 | 0.41 | 93 | 1009.1 |
| 20260506221530 | 48 | 5 | 2.0 | 11.0 | 0.02 | 0.41 | 0.41 | 93 | 1009.0 |
| 20260506221010 | 48 | 5 | 5.0 | 11.0 | 0.02 | 0.41 | 0.41 | 93 | 1008.8 |
| 20260506220510 | 48 | 355 | 2.0 | 10.0 | 0.02 | 0.41 | 0.41 | 93 | 1008.9 |
| 20260506220033 | 48 | 333 | 3.0 | 10.0 | 0.02 | 0.41 | 0.41 | 93 | 1008.8 |
| 20260506215511 | 48 | 346 | 6.0 | 10.0 | 0.02 | 0.41 | 0.41 | 93 | 1008.9 |
| 20260506215011 | 48 | 313 | 4.0 | 9.0 | 0.02 | 0.41 | 0.41 | 93 | 1008.8 |
| 20260506214530 | 48 | 335 | 4.0 | 9.0 | 0.02 | 0.41 | 0.41 | 93 | 1008.5 |
| 20260506214010 | 48 | 320 | 3.0 | 13.0 | 0.01 | 0.40 | 0.40 | 92 | 1008.6 |
| 20260506213514 | 49 | 350 | 5.0 | 13.0 | 0.01 | 0.40 | 0.40 | 92 | 1008.5 |
| 20260506213037 | 49 | 301 | 5.0 | 11.0 | 0.01 | 0.40 | 0.40 | 92 | 1008.5 |
| 20260506212512 | 49 | 325 | 4.0 | 13.0 | 0.01 | 0.40 | 0.40 | 92 | 1008.3 |
| 20260506212010 | 50 | 331 | 7.0 | 13.0 | 0.00 | 0.39 | 0.39 | 92 | 1007.9 |
| 20260506211539 | 50 | 288 | 7.0 | 13.0 | 0.00 | 0.39 | 0.39 | 92 | 1007.9 |
| 20260506211010 | 50 | 306 | 9.0 | 15.0 | 0.00 | 0.39 | 0.39 | 92 | 1007.7 |
| 20260506210512 | 50 | 321 | 7.0 | 15.0 | 0.01 | 0.39 | 0.39 | 92 | 1007.5 |
| 20260506210035 | 51 | 342 | 5.0 | 13.0 | 0.01 | 0.39 | 0.39 | 92 | 1007.5 |
| 20260506205510 | 51 | 334 | 8.0 | 13.0 | 0.01 | 0.39 | 0.39 | 92 | 1007.2 |
| 20260506205014 | 51 | 288 | 8.0 | 11.0 | 0.01 | 0.39 | 0.39 | 92 | 1007.1 |
| 20260506204533 | 52 | 337 | 5.0 | 12.0 | 0.01 | 0.39 | 0.39 | 92 | 1006.9 |
| 20260506204010 | 52 | 325 | 6.0 | 12.0 | 0.01 | 0.39 | 0.39 | 92 | 1006.8 |
| 20260506203512 | 52 | 331 | 5.0 | 14.0 | 0.01 | 0.39 | 0.39 | 91 | 1006.8 |
| 20260506203033 | 53 | 323 | 7.0 | 14.0 | 0.01 | 0.39 | 0.39 | 91 | 1006.7 |
| 20260506202513 | 53 | 326 | 7.0 | 14.0 | 0.01 | 0.39 | 0.39 | 91 | 1006.7 |
| 20260506202015 | 54 | 355 | 5.0 | 18.0 | 0.01 | 0.39 | 0.39 | 91 | 1006.6 |
| 20260506201536 | 55 | 355 | 7.0 | 18.0 | 0.01 | 0.39 | 0.39 | 91 | 1006.5 |
| 20260506201013 | 56 | 302 | 7.0 | 18.0 | 0.01 | 0.39 | 0.39 | 92 | 1006.4 |
| 20260506200510 | 58 | 319 | 7.0 | 15.0 | 0.00 | 0.38 | 0.38 | 93 | 1006.2 |
| 20260506200031 | 59 | 293 | 7.0 | 10.0 | 0.00 | 0.38 | 0.38 | 94 | 1006.1 |
| 20260506195513 | 59 | 0 | 2.0 | 7.0 | 0.00 | 0.38 | 0.38 | 94 | 1005.8 |
| 20260506195016 | 59 | 186 | 3.0 | 9.0 | 0.00 | 0.38 | 0.38 | 94 | 1005.9 |
| 20260506194527 | 59 | 210 | 2.0 | 9.0 | 0.00 | 0.38 | 0.38 | 94 | 1005.9 |
| 20260506194011 | 59 | 194 | 5.0 | 8.0 | 0.00 | 0.38 | 0.38 | 95 | 1006.0 |
| 20260506193512 | 59 | 188 | 4.0 | 7.0 | 0.00 | 0.38 | 0.38 | 95 | 1005.9 |
| 20260506193042 | 59 | 0 | 3.0 | 6.0 | 0.00 | 0.38 | 0.38 | 95 | 1006.0 |
| 20260506192514 | 59 | 197 | 3.0 | 6.0 | 0.00 | 0.38 | 0.38 | 95 | 1005.9 |
| 20260506192010 | 59 | 200 | 3.0 | 8.0 | 0.00 | 0.38 | 0.38 | 95 | 1006.0 |
| 20260506191528 | 59 | 195 | 1.0 | 8.0 | 0.00 | 0.38 | 0.38 | 95 | 1006.1 |
| 20260506191012 | 59 | 213 | 4.0 | 8.0 | 0.00 | 0.38 | 0.38 | 95 | 1006.1 |
| 20260506190513 | 58 | 228 | 4.0 | 9.0 | 0.00 | 0.38 | 0.38 | 95 | 1006.0 |
| 20260506190028 | 58 | 191 | 3.0 | 9.0 | 0.00 | 0.38 | 0.38 | 95 | 1006.1 |
| 20260506185511 | 58 | 217 | 4.0 | 12.0 | 0.00 | 0.38 | 0.38 | 96 | 1006.1 |
| 20260506185011 | 58 | 202 | 5.0 | 12.0 | 0.00 | 0.38 | 0.38 | 96 | 1006.0 |
| 20260506184531 | 58 | 208 | 4.0 | 8.0 | 0.00 | 0.38 | 0.38 | 96 | 1006.2 |
| 20260506184010 | 58 | 200 | 4.0 | 10.0 | 0.00 | 0.38 | 0.38 | 96 | 1006.2 |
| 20260506183513 | 58 | 195 | 4.0 | 10.0 | 0.00 | 0.38 | 0.38 | 96 | 1006.1 |
| 20260506183025 | 58 | 193 | 5.0 | 10.0 | 0.00 | 0.38 | 0.38 | 96 | 1006.3 |
| 20260506182511 | 58 | 175 | 5.0 | 12.0 | 0.00 | 0.38 | 0.38 | 96 | 1006.2 |
| 20260506182014 | 58 | 172 | 4.0 | 12.0 | 0.00 | 0.38 | 0.38 | 96 | 1006.4 |
| 20260506181537 | 58 | 190 | 2.0 | 16.0 | 0.00 | 0.38 | 0.38 | 96 | 1006.4 |
| 20260506181013 | 58 | 213 | 5.0 | 16.0 | 0.00 | 0.38 | 0.38 | 96 | 1006.4 |
| 20260506180516 | 58 | 178 | 6.0 | 13.0 | 0.00 | 0.38 | 0.38 | 96 | 1006.5 |
| 20260506180030 | 58 | 163 | 3.0 | 9.0 | 0.00 | 0.38 | 0.38 | 96 | 1006.4 |
| 20260506175514 | 58 | 196 | 4.0 | 9.0 | 0.01 | 0.38 | 0.38 | 96 | 1006.5 |
| 20260506175011 | 58 | 223 | 2.0 | 7.0 | 0.01 | 0.38 | 0.38 | 96 | 1006.4 |
| 20260506174534 | 58 | 163 | 3.0 | 8.0 | 0.01 | 0.38 | 0.38 | 96 | 1006.4 |
| 20260506174014 | 58 | 186 | 3.0 | 8.0 | 0.01 | 0.38 | 0.38 | 96 | 1006.4 |
| 20260506173514 | 58 | 184 | 3.0 | 7.0 | 0.01 | 0.38 | 0.38 | 96 | 1006.4 |
| 20260506173047 | 58 | 202 | 4.0 | 7.0 | 0.01 | 0.38 | 0.38 | 96 | 1006.4 |
| 20260506172511 | 58 | 196 | 2.0 | 6.0 | 0.01 | 0.38 | 0.38 | 96 | 1006.5 |
| 20260506172011 | 58 | 193 | 2.0 | 9.0 | 0.01 | 0.38 | 0.38 | 96 | 1006.5 |
| 20260506171538 | 58 | 183 | 3.0 | 9.0 | 0.01 | 0.38 | 0.38 | 96 | 1006.6 |
| 20260506171012 | 58 | 188 | 3.0 | 8.0 | 0.01 | 0.38 | 0.38 | 96 | 1006.5 |
| 20260506170514 | 58 | 229 | 4.0 | 9.0 | 0.02 | 0.38 | 0.38 | 96 | 1006.7 |
| 20260506170044 | 58 | 200 | 3.0 | 9.0 | 0.02 | 0.38 | 0.38 | 96 | 1006.7 |